Regional Weather Roundup
Issued by NWS

Home | Current Version | Previous Version | Text Only | Print | Product List | Glossary Off
Versions: 1 2 3 4 5 6 7 8 9 10 11 12 13 14 15 16 17 18 19 20 21 22 23 24 25 26 27 28 29 30 31 32 33 34 35 36 37 38 39 40 41 42 43 44 45 46 47 48 49 50

000
ASUS43 KFSD 221810
RWRSD

WEATHER ROUNDUP FOR SOUTH DAKOTA
NATIONAL WEATHER SERVICE SIOUX FALLS SD
1200 PM CST MON DEC 22 2014

NOTE: "FAIR" INDICATES FEW OR NO CLOUDS BELOW 12,000 FEET WITH NO
SIGNIFICANT WEATHER AND/OR OBSTRUCTIONS TO VISIBILITY.


SDZ001>005-009-010-012>017-221900-
NORTHWEST AND NORTH CENTRAL SOUTH DAKOTA

CITY           SKY/WX    TMP DP  RH WIND       PRES   REMARKS
BUFFALO          N/A     33  28  81 NW29G39   29.46R WCI  19
FAITH            N/A     33  27  78 NW23G30   29.49S WCI  21
MOBRIDGE       CLOUDY    32  30  92 N14       29.42S WCI  22
$$

SDZ012>016-024>037-041>051-057-063-072>074-221900-
SOUTHWEST AND SOUTH CENTRAL SOUTH DAKOTA

CITY           SKY/WX    TMP DP  RH WIND       PRES   REMARKS
RAPID CTY ARPT PTSUNNY   45  19  35 NW37G51   29.50F
PIERRE         CLOUDY    37  32  82 NW23G29   29.45F
CUSTER         PTSUNNY   32  18  56 NW13G32   29.53F WCI  22
PHILIP         CLOUDY    40  28  62 NW24G31   29.50F
PINE RIDGE     SUNNY     41  25  53 W23G33    29.55F
SPEARFISH      MIX PCPN  37  23  56 NW28G41   29.56F
WINNER         LGT RAIN  37  33  85 NW23G30   29.46F
$$

SDZ004>011-016>023-039-040-221900-
NORTHEAST SOUTH DAKOTA

CITY           SKY/WX    TMP DP  RH WIND       PRES   REMARKS
ABERDEEN       CLOUDY    34  32  92 CALM      29.42F FOG
WATERTOWN      LGT RAIN  38  37  97 SE9       29.39F
SISSETON         N/A     37  37 100 SE13      29.44F
$$

SDZ017-020-022-023-036>040-048>070-221900-
SOUTHEAST SOUTH DAKOTA

CITY           SKY/WX    TMP DP  RH WIND       PRES   REMARKS
SIOUX FALLS    LGT RAIN  38  37  97 W5        29.42F FOG
HURON          CLOUDY    33  30  88 NW8       29.42F WCI  26
CHAMBERLAIN    CLOUDY    35  34  94 NW10      29.45F WCI  27
MITCHELL       CLOUDY    37  35  92 W6        29.43F FOG
YANKTON        CLOUDY    39  37  93 NW12      29.44F
$$

ABBREVIATIONS USED IN REMARKS
   TC - TEMPERATURE IN CELSIUS
  WCI - WIND CHILL INDEX
   HX - HEAT INDEX
  VSB - VISIBILITY




USA.gov is the U.S. government's official web portal to all federal, state and local government web resources and services.